Location: Cantaing
(50.1487°N, 3.1675°E)
Time: 15:10:05
(UTC+00:00)

Molniya-1 - Pass Details

Date: 14 January 2026
Orbit: 367 x 13507 km, 62.9° (Epoch: 18 February)

Event Time Altitude Azimuth Distance (km) Brightness Sun altitude
Rises 06:47:10 0° 209° (SSW) 2,249 6.4 -8.5°
Reaches altitude 10° 06:48:38 10° 204° (SSW) 1,528 5.6 -8.3°
Maximum altitude 06:51:27 58° 124° (ESE) 718 4.3 -7.8°
Drops below altitude 10° 06:57:58 10° 46° (NE) 3,474 7.7 -6.9°
Sets 07:03:07 0° 44° (NE) 5,799 8.8 -6.2°
